Location: *
(49.9853°N, 3.5569°E)
Time: 09:07:03
(UTC+00:00)

H-2A R/B - Pass Details

Date: 22 September 2019
Orbit: 734 x 836 km, 98.3° (Epoch: 15 October)

Event Time Altitude Azimuth Distance (km) Brightness Sun altitude
Exits shadow 20:21:02 18° 203° (SSW) 1,767 3.8 -24.6°
Maximum altitude 20:24:16 39° 263° (W) 1,124 3.2 -25.0°
Drops below altitude 10° 20:29:02 10° 332° (NNW) 2,318 5.3 -25.7°
Sets 20:31:32 0° 341° (NNW) 3,266 6.1 -26.0°
